Waarnemingen

Advertentie
Mijn weer
Rostock-Warnemünde, Duitsland (10170): temperatuur & dauwpunt: 06.12.2017 13:00:00 - 12.12.2017 13:00:00 (CET)Rostock-Warnemünde, Duitsland (10170): temperatuur 5cm & temperatuur -5cm: 06.12.2017 13:00:00 - 12.12.2017 13:00:00 (CET)Rostock-Warnemünde, Duitsland (10170): temperatuur -20cm & temperatuur -100cm: 06.12.2017 13:00:00 - 12.12.2017 13:00:00 (CET)Rostock-Warnemünde, Duitsland (10170): windsnelheid & windstoten: 06.12.2017 13:00:00 - 12.12.2017 13:00:00 (CET)Rostock-Warnemünde, Duitsland (10170): windrichting: 06.12.2017 13:00:00 - 12.12.2017 13:00:00 (CET)Rostock-Warnemünde, Duitsland (10170): luchtdruk: 06.12.2017 13:00:00 - 12.12.2017 13:00:00 (CET)Rostock-Warnemünde, Duitsland (10170): zicht: 06.12.2017 13:00:00 - 12.12.2017 13:00:00 (CET)Rostock-Warnemünde, Duitsland (10170): Zonneschijnduur: 06.12.2017 13:00:00 - 12.12.2017 13:00:00 (CET)Rostock-Warnemünde, Duitsland (10170): neerslag: 06.12.2017 13:00:00 - 12.12.2017 13:00:00 (CET)
Datum & Tijd tt [°C] td [°C] tt 5cm [°C] tt -5cm [°C] tt -20cm [°C] tt -100cm [°C] ff [km/u] ff [kn] fx [km/u] fx [kn] dd ppp [hPa] vv [km] sd [min] rr [mm]
12.12.2017 13:00:00 4,0 1,6 3,0 2,7 2,3 6,1 42 23 50 27 WNW 995,4 26 0 0,2
12.12.2017 12:00:00 3,7 2,5 3,0 2,6 2,2 6,1 38 20 48 26 WNW 993,7 12 0 1,4
12.12.2017 11:00:00 4,0 2,5 3,1 2,4 2,0 6,1 32 17 42 23 W 992,2 17 0 0,1
12.12.2017 10:00:00 3,6 2,1 2,8 2,1 1,9 6,1 36 19 45 24 W 990,7 10 0 0,1
12.12.2017 09:00:00 3,4 2,3 2,7 1,9 1,7 6,1 29 16 37 20 WNW 989,0 14 0 0,3
12.12.2017 08:00:00 3,5 2,6 2,8 1,7 1,6 6,1 28 15 33 18 WNW 987,2 14 0 0,0
12.12.2017 07:00:00 2,6 2,3 2,2 1,2 1,6 6,2 10 5 21 11 ZW 986,0 3,0 0 0,8
12.12.2017 06:00:00 3,2 2,9 2,5 0,9 1,5 6,2 9 5 14 7 W 985,0 2,1 0 0,3
12.12.2017 05:00:00 2,9 2,9 1,8 0,6 1,5 6,2 0 0 9 5 N 984,3 3,1 0 0,4
12.12.2017 04:00:00 2,5 2,1 1,7 0,6 1,5 6,2 5 3 9 5 ZW 983,9 3,4 0 0,2
12.12.2017 03:00:00 2,6 2,5 1,3 0,5 1,5 6,2 0 0 7 4 N 983,9 4,2 0 0,0
12.12.2017 02:00:00 2,4 2,1 1,7 0,5 1,5 6,2 5 3 12 7 ZZO 983,4 3,9 0 0,0
12.12.2017 01:00:00 2,1 1,8 1,4 0,5 1,5 6,2 10 5 20 11 ZO 983,3 3,9 0 0,5
12.12.2017 00:00:00 1,5 1,2 0,8 0,5 1,6 6,3 9 5 14 8 OZO 984,0 2,8 0 0,5
11.12.2017 23:00:00 1,4 1,0 0,6 0,5 1,6 6,3 5 3 14 7 OZO 984,2 4,9 0 0,4
11.12.2017 22:00:00 1,3 0,8 0,6 0,5 1,6 6,3 7 4 14 8 OZO 984,3 6 0 0,1
11.12.2017 21:00:00 1,0 0,5 0,1 0,5 1,6 6,3 8 4 24 13 OZO 984,4 8 0 0,2
11.12.2017 20:00:00 0,7 0,3 0,0 0,5 1,6 6,3 13 7 30 16 OZO 984,4 2,4 0 0,7
11.12.2017 19:00:00 0,5 0,1 0,0 0,6 1,6 6,3 13 7 22 12 OZO 984,8 1,4 0 1,0
11.12.2017 18:00:00 0,6 0,0 0,0 0,6 1,6 6,3 9 5 16 9 OZO 985,4 1,9 0 0,2
11.12.2017 17:00:00 1,0 -0,5 0,5 0,6 1,6 6,4 9 5 16 9 ZO 986,0 8 0 0,0
11.12.2017 16:00:00 1,0 -0,9 0,4 0,6 1,6 6,4 10 6 15 8 ZO 986,4 10 0 0,0
11.12.2017 15:00:00 0,9 -0,7 0,2 0,6 1,6 6,4 6 3 11 6 ZZO 986,5 9 0 0,0
11.12.2017 14:00:00 0,9 -0,8 0,3 0,5 1,6 6,4 6 4 13 7 Z 986,8 9 0 0,0
11.12.2017 13:00:00 0,8 -0,8 0,4 0,5 1,6 6,4 5 3 10 6 Z 986,8 8 0 0,0
11.12.2017 12:00:00 0,6 -0,5 0,5 0,4 1,6 6,4 6 3 14 8 Z 987,2 6 0 0,0
11.12.2017 11:00:00 0,5 -0,5 0,2 0,4 1,6 6,4 8 5 13 7 ZZW 986,6 4,9 0 0,0
11.12.2017 10:00:00 0,9 0,0 0,3 0,4 1,6 6,5 5 3 19 10 Z 985,9 6 0 0,0
11.12.2017 09:00:00 1,1 0,0 0,1 0,4 1,6 6,5 11 6 18 10 ONO 983,5 10 0 0,0
11.12.2017 08:00:00 0,3 -0,6 -0,2 0,4 1,6 6,5 3 2 13 7 Z 984,9 7 0 0,0
11.12.2017 07:00:00 0,0 -0,8 -0,8 0,3 1,6 6,5 8 4 16 9 ONO 982,8 7 0 0,0
11.12.2017 06:00:00 -0,3 -1,0 -0,5 0,3 1,6 6,5 11 6 19 10 NO 981,8 2,8 0 0,0
11.12.2017 05:00:00 -0,6 -1,2 -0,8 0,3 1,6 6,5 10 5 24 13 ONO 980,6 9 0 0,2
11.12.2017 04:00:00 -1,0 -1,3 -1,0 0,3 1,6 6,5 10 5 23 12 O 980,1 1,6 0 0,6
11.12.2017 03:00:00 -1,1 -1,9 -1,1 0,3 1,7 6,6 12 6 28 15 O 979,7 1,3 0 0,2
11.12.2017 02:00:00 -0,8 -2,7 -1,0 0,3 1,7 6,6 16 8 33 18 O 979,4 15 0 0,0
11.12.2017 01:00:00 -0,8 -2,6 -1,1 0,3 1,7 6,6 18 10 40 21 OZO 979,8 4,5 0 0,2
11.12.2017 00:00:00 -0,9 -2,7 -1,2 0,3 1,8 6,6 21 11 40 22 OZO 980,7 6 0 0,0
10.12.2017 23:00:00 -0,7 -3,0 -1,0 0,3 1,8 6,6 23 13 42 23 ZO 981,3 17 0 0,0
10.12.2017 22:00:00 -0,8 -2,9 -1,1 0,4 1,9 6,6 25 14 43 23 ZO 982,1 9 0 0,0
10.12.2017 21:00:00 -0,5 -2,7 -1,0 0,5 1,9 6,6 21 12 39 21 ZO 982,6 24 0 0,0
10.12.2017 20:00:00 -0,1 -3,3 -0,5 0,5 2,0 6,7 18 10 35 19 ZZO 983,7 7 0 0,0
10.12.2017 19:00:00 0,6 -3,7 0,0 0,6 2,0 6,7 14 7 36 20 ZZO 984,3 39 0 0,0
10.12.2017 18:00:00 0,7 -3,1 0,1 0,6 2,0 6,7 15 8 41 22 ZZO 984,9 35 0 0,0
10.12.2017 17:00:00 0,6 -2,4 0,0 0,7 2,1 6,7 16 9 40 22 ZZO 986,1 29 0 0,0
10.12.2017 16:00:00 0,6 -2,1 0,1 0,8 2,1 6,7 17 9 31 17 ZZO 987,0 8 0 0,0
10.12.2017 15:00:00 1,3 -2,4 0,7 1,2 2,1 6,7 10 6 33 18 ZZO 987,7 32 0 0,0
10.12.2017 14:00:00 1,7 -2,3 1,5 1,3 2,1 6,7 13 7 35 19 Z 989,1 40 0 0,0
10.12.2017 13:00:00 1,6 -2,6 1,4 1,3 2,0 6,8 17 9 38 21 Z 990,8 29 6 0,0
10.12.2017 12:00:00 1,7 -1,6 2,3 0,7 2,0 6,8 16 9 38 20 Z 992,0 22 23 0,0
10.12.2017 11:00:00 1,3 -1,5 0,4 0,6 2,1 6,8 16 9 37 20 Z 993,5 15 53 0,0
10.12.2017 10:00:00 1,2 -1,9 0,2 0,6 2,1 6,8 18 10 38 20 Z 994,4 16 20 0,0
10.12.2017 09:00:00 1,3 -2,0 0,5 0,8 2,1 6,8 19 10 38 21 Z 995,3 15 0 0,0
10.12.2017 08:00:00 1,4 -1,9 0,7 0,8 2,2 6,8 21 12 39 21 ZZW 996,2 17 0 0,0
10.12.2017 07:00:00 1,4 -1,9 0,7 0,8 2,2 6,8 20 11 46 25 ZZW 996,8 16 0 0,0
10.12.2017 06:00:00 1,5 -2,1 0,6 0,8 2,2 6,8 21 12 39 21 ZZW 997,6 18 0 0,0
10.12.2017 05:00:00 1,7 -1,8 0,5 0,9 2,3 6,9 23 12 41 22 ZZW 998,1 17 0 0,0
10.12.2017 04:00:00 2,0 -1,1 0,9 1,1 2,3 6,9 20 11 39 21 ZW 998,5 20 0 0,0
10.12.2017 03:00:00 2,1 -0,6 0,9 1,0 2,3 6,9 18 10 41 22 ZW 999,3 16 0 0,0
10.12.2017 02:00:00 1,8 -0,5 0,7 0,9 2,4 6,9 21 11 40 22 ZW 999,7 13 0 0,0
10.12.2017 01:00:00 1,7 -0,1 0,8 0,9 2,4 6,9 20 11 38 21 ZW 1000,5 26 0 0,0
10.12.2017 00:00:00 1,8 0,0 0,7 0,9 2,5 6,9 19 11 36 19 ZW 1001,0 38 0 0,0
09.12.2017 23:00:00 1,7 0,0 0,8 0,9 2,6 6,9 19 11 41 22 ZW 1001,4 9 0 0,0
09.12.2017 22:00:00 1,8 0,4 0,9 0,9 2,7 6,9 16 9 40 22 ZW 1001,6 11 0 0,0
09.12.2017 21:00:00 1,6 0,2 0,2 1,0 2,8 6,9 16 9 45 24 ZW 1001,5 26 0 0,0
09.12.2017 20:00:00 1,9 0,1 0,6 1,0 2,9 7,0 23 12 43 23 ZW 1001,8 34 0 0,0
09.12.2017 19:00:00 1,8 0,2 0,2 1,1 3,1 7,0 17 9 42 23 ZW 1001,9 30 0 1,9
09.12.2017 18:00:00 2,7 0,5 1,1 1,5 3,2 7,0 16 8 35 19 ZW 1001,7 31 0 0,2
09.12.2017 17:00:00 2,1 0,5 0,8 1,6 3,3 7,0 18 10 55 30 WZW 1001,6 35 0 0,7
09.12.2017 16:00:00 4,0 0,7 2,7 2,6 3,4 7,0 18 10 43 23 WZW 1001,6 41 0 0,0
09.12.2017 15:00:00 4,4 0,7 2,6 2,8 3,4 7,0 24 13 45 24 W 1001,1 37 56 0,0
09.12.2017 14:00:00 4,7 1,5 3,9 3,5 3,2 7,0 27 14 45 25 W 1000,9 33 6 0,0
09.12.2017 13:00:00 4,8 1,9 3,9 3,3 3,0 7,0 27 14 55 30 W 1000,8 30 2 0,0
09.12.2017 12:00:00 4,3 2,0 3,8 3,1 2,8 7,0 37 20 54 29 W 1000,4 29 1 0,1
09.12.2017 11:00:00 3,1 1,8 2,7 2,4 2,6 7,1 18 10 36 19 WZW 1000,4 27 0 0,0
09.12.2017 10:00:00 2,8 1,7 2,4 1,7 2,5 7,1 16 9 37 20 WZW 1000,2 35 0 0,0
09.12.2017 09:00:00 2,1 1,1 1,5 1,2 2,5 7,1 18 10 39 21 ZW 999,6 25 0 0,0
09.12.2017 08:00:00 1,7 0,7 1,0 0,9 2,6 7,1 16 9 36 19 ZW 999,3 7 0 0,6
09.12.2017 07:00:00 1,6 0,3 0,8 0,8 2,6 7,1 18 10 39 21 ZW 999,3 4,0 0 0,1
09.12.2017 06:00:00 1,7 -0,6 0,9 0,7 2,7 7,1 20 11 41 22 ZW 999,5 16 0 0,0
09.12.2017 05:00:00 1,3 -0,8 0,0 0,7 2,8 7,1 19 11 35 19 ZW 999,8 15 0 0,0
09.12.2017 04:00:00 1,1 -1,2 -0,2 0,8 2,8 7,1 16 9 36 19 ZW 1000,2 17 0 0,0
09.12.2017 03:00:00 0,8 -1,5 -0,6 0,7 3,0 7,1 22 12 40 22 ZZW 1000,6 18 0 0,0
09.12.2017 02:00:00 1,1 -1,4 -0,5 0,7 3,2 7,1 21 12 37 20 ZW 1000,8 20 0 0,0
09.12.2017 01:00:00 1,5 -1,2 0,0 1,0 3,3 7,1 21 11 43 23 ZW 1001,0 28 0 0,0
09.12.2017 00:00:00 1,7 -0,9 0,5 1,1 3,4 7,1 19 10 43 23 ZW 1001,0 28 0 0,0
08.12.2017 23:00:00 2,1 -0,5 0,7 1,4 3,6 7,1 22 12 47 26 ZW 1001,0 24 0 0,0
08.12.2017 22:00:00 1,9 -0,2 0,7 1,3 3,8 7,1 16 9 37 20 ZW 1001,4 21 0 0,0
08.12.2017 21:00:00 2,1 0,1 0,5 1,7 4,0 7,1 19 11 41 22 ZW 1001,2 21 0 0,0
08.12.2017 20:00:00 2,7 0,5 1,4 2,2 4,2 7,1 17 9 37 20 WZW 1000,9 30 0 0,0
08.12.2017 19:00:00 2,1 0,4 1,2 2,3 4,3 7,1 19 10 32 17 ZZW 1000,6 24 0 0,0
08.12.2017 18:00:00 2,0 0,5 1,0 2,5 4,5 7,1 18 10 32 17 ZW 1000,2 28 0 0,0
08.12.2017 17:00:00 2,4 0,9 1,1 2,9 4,7 7,1 17 9 31 17 ZW 999,8 42 0 0,0
08.12.2017 16:00:00 2,6 1,3 2,1 3,7 4,8 7,1 15 8 32 18 ZW 999,4 38 0 0,0
08.12.2017 15:00:00 2,7 1,4 2,3 4,0 4,8 7,1 16 9 35 19 ZW 999,2 20 0 0,1
08.12.2017 14:00:00 3,3 1,5 2,9 4,3 4,8 7,1 20 11 45 25 WZW 999,3 26 0 0,0
08.12.2017 13:00:00 3,5 1,7 3,2 4,4 4,8 7,1 21 12 41 22 ZW 999,1 51 0 0,0
08.12.2017 12:00:00 3,7 1,8 3,5 4,3 4,7 7,1 23 12 40 22 WZW 999,3 44 0 0,0
08.12.2017 11:00:00 3,8 2,2 3,4 4,2 4,7 7,1 18 10 36 19 WZW 999,4 41 0 0,2
08.12.2017 10:00:00 3,7 2,2 3,1 3,6 4,7 7,1 16 8 37 20 WZW 999,4 10 0 0,3
08.12.2017 09:00:00 3,7 2,0 2,6 3,1 4,9 7,1 17 9 30 16 ZW 999,0 66 0 0,1
08.12.2017 08:00:00 3,7 2,4 2,8 2,7 5,1 7,1 28 15 59 32 W 999,0 9 0 2,7
08.12.2017 07:00:00 5,1 3,0 3,8 4,2 5,2 7,1 15 8 33 18 ZW 998,6 21 0 0,4
08.12.2017 06:00:00 5,6 3,4 4,4 4,2 5,3 7,1 17 9 36 19 WZW 998,4 23 0 0,1
08.12.2017 05:00:00 5,7 3,9 4,0 4,3 5,4 7,1 19 10 40 22 ZW 998,2 20 0 0,0
08.12.2017 04:00:00 6,2 4,4 4,8 4,8 5,5 7,1 18 10 37 20 ZW 998,2 20 0 0,0
08.12.2017 03:00:00 6,4 4,7 5,2 4,8 5,6 7,0 21 12 42 23 ZW 998,4 18 0 0,0
08.12.2017 02:00:00 6,3 4,7 5,0 4,8 5,6 7,0 18 10 35 19 ZW 998,4 18 0 0,0
08.12.2017 01:00:00 6,5 4,9 5,5 5,2 5,6 7,0 18 10 36 19 ZW 998,7 18 0 0,0
08.12.2017 00:00:00 6,4 5,0 5,6 5,3 5,6 7,0 21 11 44 24 ZW 998,8 20 0 0,0
07.12.2017 23:00:00 6,1 4,7 5,3 5,2 5,6 7,0 23 12 42 23 ZZW 998,8 25 0 0,4
07.12.2017 22:00:00 5,6 4,5 4,9 5,1 5,7 7,0 24 13 43 23 ZZW 999,8 10 0 0,6
07.12.2017 21:00:00 5,1 4,2 4,6 5,0 5,7 7,0 24 13 47 25 ZZW 1000,4 6 0 0,0
07.12.2017 20:00:00 5,0 3,5 4,5 5,0 5,8 7,0 32 17 52 28 ZZW 1000,9 11 0 0,0
07.12.2017 19:00:00 5,5 3,4 4,6 5,2 5,9 7,0 29 16 54 29 ZZW 1001,5 7 0 0,0
07.12.2017 18:00:00 5,6 2,5 4,7 5,5 6,0 7,0 31 17 56 31 ZZW 1002,4 10 0 0,1
07.12.2017 17:00:00 6,0 1,6 5,7 5,7 6,0 7,0 25 14 48 26 Z 1003,4 22 0 0,0
07.12.2017 16:00:00 6,3 1,5 6,1 5,8 6,0 7,0 24 13 51 28 Z 1004,7 22 0 0,0
07.12.2017 15:00:00 6,4 1,4 6,3 6,0 6,0 7,0 28 15 50 27 ZZW 1005,9 25 0 0,0
07.12.2017 14:00:00 6,3 1,0 6,2 6,1 6,0 7,0 24 13 53 29 ZZW 1006,8 26 0 0,0
07.12.2017 13:00:00 6,3 0,7 6,5 6,2 5,9 6,9 29 16 49 26 ZZW 1008,1 15 0 0,0
07.12.2017 12:00:00 6,2 0,9 6,2 5,8 5,9 6,9 25 14 49 26 ZZW 1009,4 14 0 0,0
07.12.2017 11:00:00 6,2 0,5 6,2 5,8 5,9 6,9 32 18 53 28 ZZW 1010,7 25 0 0,0
07.12.2017 10:00:00 6,4 0,6 6,3 5,5 5,9 6,9 30 16 53 28 ZZW 1011,5 14 0 0,0
07.12.2017 09:00:00 6,5 1,0 6,0 5,4 6,0 6,9 20 11 48 26 ZW 1012,9 25 0 0,0
07.12.2017 08:00:00 7,0 1,0 6,5 5,6 6,0 6,9 22 12 51 28 ZW 1013,6 26 0 0,0
07.12.2017 07:00:00 7,6 2,3 7,0 5,8 6,1 6,9 17 9 46 25 ZW 1013,8 20 0 0,0
07.12.2017 06:00:00 7,8 3,3 7,2 5,9 6,1 6,9 21 12 41 22 ZW 1014,2 19 0 0,0
07.12.2017 05:00:00 8,1 3,5 7,5 6,0 6,1 6,9 22 12 47 25 ZZW 1014,7 17 0 0,0
07.12.2017 04:00:00 8,2 3,8 7,5 6,0 6,1 6,9 19 10 42 23 ZW 1015,4 14 0 0,0
07.12.2017 03:00:00 8,3 4,0 7,6 6,0 6,1 6,9 21 11 42 23 ZW 1016,1 13 0 0,0
07.12.2017 02:00:00 8,4 3,9 7,7 6,1 6,1 6,9 20 11 46 25 ZW 1016,8 19 0 0,0
07.12.2017 01:00:00 8,7 3,6 8,0 6,1 6,1 6,8 20 11 46 25 WZW 1017,4 39 0 0,0
07.12.2017 00:00:00 8,6 3,7 7,9 6,1 6,2 6,8 21 12 44 24 WZW 1018,1 43 0 0,0
06.12.2017 23:00:00 8,6 4,1 7,9 6,2 6,2 6,8 20 11 45 24 WZW 1018,3 45 0 0,0
06.12.2017 22:00:00 8,7 4,0 8,0 6,2 6,2 6,8 22 12 44 24 WZW 1018,8 47 0 0,0
06.12.2017 21:00:00 8,4 4,4 7,7 6,2 6,2 6,8 23 12 45 25 WZW 1019,0 38 0 0,0
06.12.2017 20:00:00 8,3 4,5 7,7 6,3 6,2 6,8 21 11 46 25 WZW 1019,3 41 0 0,0
06.12.2017 19:00:00 7,9 5,2 7,5 6,4 6,2 6,8 22 12 50 27 WZW 1019,4 23 0 0,0
06.12.2017 18:00:00 8,2 5,1 7,7 6,4 6,2 6,8 24 13 49 26 WZW 1019,4 32 0 0,0
06.12.2017 17:00:00 8,3 5,1 7,8 6,4 6,2 6,8 25 13 61 33 WZW 1019,4 25 0 0,0
06.12.2017 16:00:00 8,4 5,1 8,0 6,5 6,1 6,8 29 16 59 32 WZW 1019,2 22 0 0,0
06.12.2017 15:00:00 8,4 5,3 8,0 6,6 6,1 6,8 33 18 61 33 W 1019,2 26 0 0,0
06.12.2017 14:00:00 8,2 5,4 7,9 6,5 6,0 6,8 29 16 56 30 W 1019,3 22 0 0,0
06.12.2017 13:00:00 7,9 5,2 7,1 6,4 5,9 6,7 32 17 58 31 W 1019,4 11 0 0,0

tt = temperatuur
td = dauwpunt
tt 5cm = temperatuur 5cm
tt -5cm = temperatuur -5cm
tt -20cm = temperatuur -20cm
tt -100cm = temperatuur -100cm
ff = windsnelheid
fx = windstoten
dd = windrichting
ppp = luchtdruk
vv = zicht
sd = Zonneschijnduur
rr = neerslag

Weerstations in de omgeving

  • TOP-25 (most viewed):